Regional Weather Roundup
Issued by NWS

Home | Current Version | Previous Version | Text Only | Print | Product List | Glossary Off
Versions: 1 2 3 4 5 6 7 8 9 10 11 12 13 14 15 16 17 18 19 20 21 22 23 24 25 26 27 28 29 30 31 32 33 34 35 36 37 38 39 40 41 42 43 44 45 46 47 48 49 50

000
ASUS43 KBIS 220910
RWRND

NORTH DAKOTA REGIONAL WEATHER ROUNDUP
NATIONAL WEATHER SERVICE BISMARCK ND
400 AM CDT TUE JUL 22 2014

NOTE: "FAIR" INDICATES FEW OR NO CLOUDS BELOW 12,000 FEET WITH NO
SIGNIFICANT WEATHER AND/OR OBSTRUCTIONS TO VISIBILITY.


NDZ001>003-009>011-017-221000-
NORTHWEST NORTH DAKOTA

CITY           SKY/WX    TMP DP  RH WIND       PRES   REMARKS
WILLISTON      MOCLDY    61  58  90 CALM      30.07R
MINOT          CLEAR     61  58  90 W6        30.04R
MINOT AFB      CLEAR     58  58 100 W7        30.04R
$$

NDZ018>021-031>035-040>046-221000-
SOUTHWEST NORTH DAKOTA

CITY           SKY/WX    TMP DP  RH WIND       PRES   REMARKS
BISMARCK       MOCLDY    62  60  93 SW5       30.07R
DICKINSON      PTCLDY    56  56 100 NW3       30.08S FOG
GARRISON         N/A     58  57  97 N6        30.06R
HETTINGER ARPT MOCLDY    59  57  93 N8        30.09F FOG
$$

NDZ004>008-012>016-024-026-027-054-221000-
NORTHEAST NORTH DAKOTA

CITY           SKY/WX    TMP DP  RH WIND       PRES   REMARKS
GRAND FORKS    CLOUDY    64  61  90 NW12      29.91R
GRND FRKS AFB  CLOUDY    63  63 100 NW10      29.93R
DEVILS LAKE    MOCLDY    63  57  82 NW9       29.98R
$$

NDZ022-023-025-028>030-036>039-047>053-221000-
SOUTHEAST NORTH DAKOTA

CITY           SKY/WX    TMP DP  RH WIND       PRES   REMARKS
FARGO          CLOUDY    67  64  90 NW10      29.90R
JAMESTOWN      MOCLDY    65  63  93 N8        29.97R
$$




USA.gov is the U.S. government's official web portal to all federal, state and local government web resources and services.